カタログに戻る

METEOR 2-8 DEB

運用中PO
NORAD 38289·DEBRIS·🇷🇺 Russia

打ち上げ Mar 25, 1982 から Plesetsk Cosmodrome

Loading…

次のパス (今後24時間)

TLE

最新Source: Space-Track

元期: Sep 12, 2026, 08:53 UTC

1 38289U 82025BF  26255.37023403  .00001422  00000-0  58984-3 0  9995
2 38289  82.5251 128.2451 0016798 195.9296 164.1362 14.25887248347129

AllMySatでMETEOR 2-8 DEBをリアルタイム追跡

Download on the App Store